When you browse on this site, cookies collect data to enhance your experience and personalize the content and advertising you see.
Visit our Privacy Policy to learn more. By continuing to use the site, you agree to this use of cookies and data.
  • In Portugal
  • List of Countries
  • For 7 days
  • Water Temperature
  • Weather Map
  • Weather Widgets
  • user-avatar
    Login

    Hourly Weather Tatarskaya Pishlya

    Today, 21 August, Wednesday

    Time Temperature Precipitation Wind Pressure Humidity
    00:00 +17°C° 0 mm 2 mps 753 mmHg 92%
    01:00 +17°C° 0 mm 2 mps 753 mmHg 92%
    02:00 +17°C° 0 mm 2 mps 753 mmHg 93%
    03:00 +17°C° 0 mm 2 mps 753 mmHg 93%
    04:00 +17°C° 0 mm 2 mps 753 mmHg 93%
    05:00 +17°C° 0 mm 2 mps 754 mmHg 93%
    06:00 +17°C° 0 mm 2 mps 754 mmHg 93%
    07:00 +19°C° 0 mm 2 mps 754 mmHg 87%
    08:00 +20°C° 0 mm 2 mps 754 mmHg 81%
    09:00 +23°C° 0 mm 2 mps 754 mmHg 75%
    10:00 +24°C° 0 mm 2 mps 754 mmHg 71%
    11:00 +25°C° 0 mm 3 mps 754 mmHg 67%
    12:00 +26°C° 0 mm 3 mps 754 mmHg 63%
    13:00 +26°C° 0 mm 3 mps 754 mmHg 62%
    14:00 +26°C° 0 mm 3 mps 754 mmHg 61%
    15:00 +27°C° 0 mm 3 mps 754 mmHg 60%
    16:00 +26°C° 0 mm 3 mps 754 mmHg 65%
    17:00 +25°C° 0 mm 2 mps 753 mmHg 70%
    18:00 +25°C° 0 mm 2 mps 753 mmHg 74%
    19:00 +23°C° 0 mm 2 mps 753 mmHg 78%
    20:00 +21°C° 0 mm 2 mps 753 mmHg 82%
    21:00 +20°C° 0 mm 2 mps 753 mmHg 85%
    22:00 +20°C° 0 mm 1 mps 753 mmHg 87%
    23:00 +20°C° 0 mm 1 mps 753 mmHg 88%

    Tomorrow, 22 August, Thursday

    Time Temperature Precipitation Wind Pressure Humidity
    00:00 +20°C° 0 mm 1 mps 753 mmHg 89%
    01:00 +19°C° 0 mm 1 mps 753 mmHg 90%
    02:00 +17°C° 0 mm 0 mps 753 mmHg 90%
    03:00 +17°C° 0 mm 0 mps 754 mmHg 90%
    04:00 +17°C° 0 mm 0 mps 753 mmHg 90%
    05:00 +17°C° 0 mm 0 mps 753 mmHg 90%
    06:00 +17°C° 0 mm 0 mps 753 mmHg 90%
    07:00 +21°C° 0 mm 1 mps 753 mmHg 84%
    08:00 +22°C° 0 mm 1 mps 753 mmHg 78%
    09:00 +24°C° 0 mm 1 mps 753 mmHg 72%
    10:00 +25°C° 0 mm 1 mps 753 mmHg 68%
    11:00 +26°C° 0 mm 1 mps 753 mmHg 64%
    12:00 +27°C° 0 mm 1 mps 752 mmHg 59%
    13:00 +27°C° 0 mm 1 mps 752 mmHg 58%
    14:00 +27°C° 0 mm 1 mps 752 mmHg 56%
    15:00 +28°C° 0 mm 1 mps 752 mmHg 54%
    16:00 +27°C° 0 mm 1 mps 751 mmHg 58%
    17:00 +27°C° 0 mm 1 mps 751 mmHg 63%
    18:00 +26°C° 0 mm 1 mps 751 mmHg 67%
    19:00 +25°C° 0 mm 1 mps 751 mmHg 70%
    20:00 +21°C° 0 mm 0 mps 751 mmHg 73%
    21:00 +20°C° 0 mm 0 mps 751 mmHg 76%
    22:00 +19°C° 0 mm 0 mps 752 mmHg 78%
    23:00 +21°C° 0 mm 1 mps 752 mmHg 79%

    Day after tomorrow, 23 August, Friday

    Time Temperature Precipitation Wind Pressure Humidity
    00:00 +21°C° 0 mm 1 mps 752 mmHg 80%
    01:00 +20°C° 0 mm 1 mps 752 mmHg 82%
    02:00 +20°C° 0 mm 1 mps 752 mmHg 84%
    03:00 +19°C° 0 mm 2 mps 752 mmHg 86%
    04:00 +18°C° 0 mm 3 mps 752 mmHg 88%
    05:00 +18°C° 0 mm 4 mps 753 mmHg 90%
    06:00 +18°C° 0 mm 4 mps 753 mmHg 91%
    07:00 +18°C° 0 mm 4 mps 753 mmHg 89%
    08:00 +18°C° 0 mm 4 mps 753 mmHg 87%
    09:00 +18°C° 0 mm 4 mps 754 mmHg 85%
    10:00 +19°C° 0 mm 4 mps 754 mmHg 80%
    11:00 +20°C° 0 mm 4 mps 754 mmHg 75%
    12:00 +21°C° 0 mm 4 mps 754 mmHg 70%
    13:00 +22°C° 0 mm 4 mps 754 mmHg 67%
    14:00 +22°C° 0 mm 4 mps 754 mmHg 63%
    15:00 +22°C° 0 mm 4 mps 754 mmHg 60%
    16:00 +22°C° 0 mm 4 mps 754 mmHg 64%
    17:00 +21°C° 0 mm 3 mps 754 mmHg 68%
    18:00 +20°C° 0 mm 3 mps 754 mmHg 72%
    19:00 +19°C° 0 mm 3 mps 754 mmHg 74%
    20:00 +18°C° 0 mm 3 mps 754 mmHg 75%
    21:00 +16°C° 0 mm 3 mps 754 mmHg 77%
    22:00 +16°C° 0 mm 2 mps 754 mmHg 78%
    23:00 +16°C° 0 mm 2 mps 755 mmHg 78%

    24 August, Saturday

    Time Temperature Precipitation Wind Pressure Humidity
    00:00 +15°C° 0 mm 2 mps 755 mmHg 79%
    01:00 +15°C° 0 mm 2 mps 755 mmHg 80%
    02:00 +14°C° 0 mm 2 mps 755 mmHg 81%
    03:00 +14°C° 0 mm 2 mps 755 mmHg 83%
    04:00 +14°C° 0 mm 2 mps 755 mmHg 83%
    05:00 +14°C° 0 mm 2 mps 755 mmHg 84%
    06:00 +14°C° 0 mm 2 mps 755 mmHg 85%
    07:00 +16°C° 0 mm 2 mps 755 mmHg 79%
    08:00 +18°C° 0 mm 2 mps 755 mmHg 73%
    09:00 +19°C° 0 mm 3 mps 756 mmHg 68%
    10:00 +20°C° 0 mm 2 mps 755 mmHg 63%
    11:00 +21°C° 0 mm 2 mps 755 mmHg 58%
    12:00 +23°C° 0 mm 2 mps 755 mmHg 54%
    13:00 +24°C° 0 mm 2 mps 755 mmHg 53%
    14:00 +24°C° 0 mm 2 mps 755 mmHg 52%
    15:00 +24°C° 0 mm 2 mps 755 mmHg 51%
    16:00 +23°C° 0 mm 2 mps 755 mmHg 55%
    17:00 +23°C° 0 mm 2 mps 754 mmHg 60%
    18:00 +22°C° 0 mm 1 mps 754 mmHg 65%
    19:00 +20°C° 0 mm 1 mps 754 mmHg 68%
    20:00 +17°C° 0 mm 0 mps 754 mmHg 71%
    21:00 +15°C° 0 mm 0 mps 754 mmHg 74%
    22:00 +15°C° 0 mm 0 mps 754 mmHg 75%
    23:00 +15°C° 0 mm 0 mps 754 mmHg 76%

    25 August, Sunday

    Time Temperature Precipitation Wind Pressure Humidity
    00:00 +15°C° 0 mm 1 mps 754 mmHg 77%
    01:00 +15°C° 0 mm 1 mps 754 mmHg 78%
    02:00 +15°C° 0 mm 1 mps 753 mmHg 80%
    03:00 +14°C° 0 mm 2 mps 753 mmHg 81%
    04:00 +14°C° 0 mm 2 mps 753 mmHg 81%
    05:00 +14°C° 0 mm 2 mps 753 mmHg 82%
    06:00 +14°C° 0 mm 2 mps 753 mmHg 82%
    07:00 +16°C° 0 mm 3 mps 753 mmHg 77%
    08:00 +18°C° 0 mm 3 mps 752 mmHg 72%
    09:00 +20°C° 0 mm 3 mps 752 mmHg 67%
    10:00 +21°C° 0 mm 4 mps 752 mmHg 64%
    11:00 +22°C° 0 mm 4 mps 752 mmHg 61%
    12:00 +23°C° 0 mm 4 mps 751 mmHg 58%
    13:00 +23°C° 0 mm 4 mps 751 mmHg 57%
    14:00 +23°C° 0 mm 5 mps 751 mmHg 57%
    15:00 +25°C° 0 mm 5 mps 751 mmHg 57%
    16:00 +23°C° 0.1 mm 5 mps 750 mmHg 62%
    17:00 +21°C° 0.1 mm 4 mps 750 mmHg 67%
    18:00 +20°C° 0.1 mm 4 mps 750 mmHg 73%
    19:00 +19°C° 0.4 mm 4 mps 750 mmHg 79%
    20:00 +18°C° 0.4 mm 3 mps 750 mmHg 86%
    21:00 +16°C° 0.4 mm 3 mps 751 mmHg 92%
    22:00 +16°C° 0.1 mm 3 mps 751 mmHg 92%
    23:00 +14°C° 0.1 mm 3 mps 751 mmHg 92%

    26 August, Monday

    Time Temperature Precipitation Wind Pressure Humidity
    00:00 +14°C° 0.1 mm 3 mps 751 mmHg 92%
    01:00 +13°C° 0 mm 3 mps 752 mmHg 93%
    02:00 +12°C° 0 mm 3 mps 752 mmHg 94%
    03:00 +11°C° 0 mm 3 mps 752 mmHg 95%
    04:00 +11°C° 0 mm 3 mps 753 mmHg 95%
    05:00 +11°C° 0 mm 4 mps 753 mmHg 95%
    06:00 +11°C° 0 mm 4 mps 753 mmHg 96%
    07:00 +11°C° 0 mm 4 mps 754 mmHg 92%
    08:00 +12°C° 0 mm 4 mps 754 mmHg 88%
    09:00 +12°C° 0 mm 5 mps 755 mmHg 84%
    10:00 +13°C° 0 mm 5 mps 755 mmHg 81%
    11:00 +13°C° 0 mm 5 mps 755 mmHg 77%
    12:00 +14°C° 0 mm 5 mps 756 mmHg 73%
    13:00 +14°C° 0 mm 4 mps 756 mmHg 70%
    14:00 +15°C° 0 mm 4 mps 756 mmHg 67%
    15:00 +17°C° 0 mm 4 mps 756 mmHg 63%
    16:00 +17°C° 0 mm 3 mps 756 mmHg 67%
    17:00 +16°C° 0 mm 2 mps 756 mmHg 70%
    18:00 +16°C° 0 mm 2 mps 756 mmHg 73%
    19:00 +14°C° 0 mm 2 mps 757 mmHg 77%
    20:00 +13°C° 0 mm 2 mps 757 mmHg 81%
    21:00 +12°C° 0 mm 1 mps 757 mmHg 85%
    22:00 +11°C° 0 mm 1 mps 757 mmHg 86%
    23:00 +11°C° 0 mm 1 mps 757 mmHg 88%
    Show more